User: anonymous   Login
Location: Mentone
(34.5413°N, 85.5351°W)
Time: 18:47:18
(UTC-05:00)
Language:

Cosmos 2150 Rocket - Orbit

View from above orbital plane
View from above orbital plane
View from above satellite
View from above satellite

Ground track
Ground track

The orbit data is extracted from the following two-line orbital elements,

1 21419U 91041B   17227.83436596 -.00000045  00000-0 -68707-5 0  9999
2 21419  74.0385 190.4462 0039837 103.5229 257.0365 14.33868283369017
Epoch (UTC): 15 August 2017 20:01:29
Eccentricity: 0.0039837
inclination: 74.0385°
perigee height: 750 km
apogee height: 807 km
right ascension of ascending node: 190.4462°
argument of perigee: 103.5229°
revolutions per day: 14.33868283
mean anomaly at epoch: 257.0365°
orbit number at epoch: 36901

The dashed part of the orbit path shows where the satellite is in the earth's shadow,  

DLR